Date,TemperatureHighF,TemperatureAvgF,TemperatureLowF,DewpointHighF,DewpointAvgF,DewpointLowF,HumidityHigh,HumidityAvg,HumidityLow,PressureMaxIn,PressureMinIn,WindSpeedMaxMPH,WindSpeedAvgMPH,GustSpeedMaxMPH,PrecipitationSumIn
2013-1-1,39,35,28,33,28,23,84,78,68,29.39,29.05,13,3,26,0.00
2013-1-2,38,33,26,30,27,23,90,79,67,29.38,29.13,9,1,17,0.00
2013-1-3,39,36,32,32,30,26,86,78,66,29.46,29.34,10,3,19,0.00
2013-1-4,32,28,22,28,25,20,93,90,83,29.71,29.46,4,0,6,0.00
2013-1-5,34,31,26,28,25,23,92,79,69,29.61,29.14,14,4,21,0.00
2013-1-6,35,31,28,29,26,23,88,82,73,29.23,28.88,11,2,15,0.00
2013-1-7,33,30,21,30,24,17,87,77,67,29.27,28.90,10,2,16,0.00
2013-1-8,26,18,9,21,14,6,91,87,79,29.90,29.27,3,1,4,0.00
2013-1-9,18,11,4,16,7,0,88,86,84,29.99,29.83,24,1,24,0.00
2013-1-10,25,22,18,22,20,16,92,90,88,30.05,29.83,6,0,10,0.00
2013-1-11,28,26,24,26,24,22,92,90,87,30.04,29.78,6,1,11,0.00
2013-1-12,36,30,24,34,28,-37,95,93,92,30.01,29.69,4,1,7,0.01
2013-1-13,37,35,34,36,33,32,96,95,94,29.77,29.51,4,1,8,0.00
2013-1-14,41,36,30,37,31,21,95,83,66,29.87,29.39,19,5,30,0.00
2013-1-15,33,28,24,23,20,16,84,69,58,30.11,29.87,18,4,27,0.00
2013-1-16,26,23,22,21,20,19,90,87,81,30.07,29.59,5,1,8,0.00
2013-1-17,22,18,12,20,15,8,91,86,77,29.85,29.51,2,0,4,0.00
2013-1-18,15,8,-2,10,4,-6,86,82,78,30.11,29.85,5,1,16,0.00
2013-1-19,27,21,13,21,16,8,84,80,75,30.12,29.77,16,5,24,0.00
2013-1-20,31,28,23,28,25,20,92,86,78,29.78,29.71,11,4,31,0.00
2013-1-21,35,28,20,27,23,18,93,82,71,29.79,29.54,11,2,21,0.00
2013-1-22,37,36,34,28,27,25,78,71,67,29.55,29.30,10,3,16,0.00
2013-1-23,40,31,26,30,26,23,90,80,67,29.99,29.16,8,1,11,0.00
2013-1-24,39,31,24,30,26,22,91,84,69,29.39,29.23,13,3,21,0.00
2013-1-25,36,21,-2,31,11,-36,82,64,40,29.56,29.21,24,4,24,0.00
2013-1-26,9,-4,-12,-5,-12,-17,80,70,45,29.80,29.56,6,1,9,0.00
2013-1-27,5,-8,-18,-6,-18,-24,76,63,42,30.08,29.80,8,2,12,0.00
2013-1-28,8,-3,-18,3,-11,-28,82,69,48,30.09,29.70,13,3,22,0.00
2013-1-29,15,10,8,11,6,2,84,81,78,29.74,29.63,14,4,22,0.00
2013-1-30,31,24,15,29,20,11,93,88,82,29.74,29.53,8,3,13,0.00
2013-1-31,32,30,22,30,27,-26,94,92,10,29.83,29.59,3,0,4,0.00
2013-2-1,32,30,27,29,26,-20,94,89,80,29.85,29.54,6,0,49,0.00
2013-2-2,39,33,31,32,30,-18,93,88,10,29.54,29.20,6,0,7,0.00
2013-2-3,37,33,28,32,29,-15,94,85,81,29.36,29.10,9,1,14,0.00
2013-2-4,35,29,19,33,28,18,94,93,92,29.52,29.35,3,0,50,0.00
2013-2-5,32,25,18,28,23,-19,94,91,85,29.53,29.40,3,0,5,0.00
2013-2-6,31,26,20,28,23,18,92,91,87,29.53,29.36,2,0,4,0.00
2013-2-7,28,25,23,26,23,-23,92,91,90,29.50,29.16,4,1,8,0.00
2013-2-8,30,27,-17,28,25,-19,93,92,87,29.63,29.27,3,0,50,0.01
2013-2-9,43,35,28,35,30,-13,92,83,10,29.57,28.83,8,2,14,0.00
2013-2-10,40,35,31,34,30,-16,93,82,69,29.38,28.82,29,4,68,0.00
2013-2-11,32,25,19,26,14,10,84,64,46,29.63,29.38,13,4,21,0.00
2013-2-12,28,25,22,23,21,15,88,84,74,29.65,29.58,11,4,16,0.00
2013-2-13,33,28,22,27,24,20,92,83,73,29.70,29.47,11,2,18,0.00
2013-2-14,38,33,29,29,26,24,92,77,64,29.47,29.11,15,4,26,0.00
2013-2-15,34,27,17,27,20,10,89,75,57,29.82,29.38,12,2,17,0.00
2013-2-16,30,20,11,17,12,7,86,72,48,29.89,29.62,12,3,19,0.00
2013-2-17,27,24,18,24,20,13,90,86,78,29.68,29.47,13,4,23,0.00
2013-2-18,22,11,-2,14,4,-6,86,73,51,29.81,29.68,5,1,8,0.00
2013-2-19,18,13,3,14,6,-1,87,73,59,29.75,29.13,13,4,27,0.00
2013-2-20,46,23,18,24,19,14,90,84,78,30.49,28.94,8,2,14,0.00
2013-2-21,30,26,23,27,23,20,91,88,83,29.20,29.07,6,1,8,0.00
2013-2-22,32,24,14,24,15,8,92,70,43,29.37,29.16,11,2,15,0.00
2013-2-23,27,21,13,22,16,7,90,81,69,29.30,29.09,14,4,26,0.00
2013-2-24,32,27,21,27,23,18,91,85,76,29.56,29.27,9,2,12,0.00
2013-2-25,38,25,11,28,19,8,90,78,65,29.59,29.46,12,3,17,0.00
2013-2-26,41,34,31,22,18,15,67,52,40,29.47,29.20,14,6,24,0.00
2013-2-27,40,32,28,26,19,12,76,58,48,29.21,29.12,10,3,14,0.00
2013-2-28,38,32,26,28,25,21,88,75,65,29.35,29.21,6,2,10,0.00
2013-3-1,37,30,23,30,26,20,92,86,74,29.89,29.35,4,1,8,0.00
2013-3-2,36,28,20,29,25,17,93,87,76,29.99,29.89,8,1,14,0.00
2013-3-3,35,29,22,26,22,18,88,76,65,30.35,29.99,8,1,13,0.00
2013-3-4,40,33,27,27,23,19,77,67,57,30.38,30.26,6,1,9,0.00
2013-3-5,42,29,17,29,21,13,86,72,55,30.26,29.92,4,1,8,0.00
2013-3-6,41,30,23,28,22,18,87,75,55,29.92,29.75,5,1,8,0.00
2013-3-7,45,36,25,32,27,19,84,72,40,29.76,29.39,13,3,24,0.00
2013-3-8,48,36,26,32,26,22,87,68,43,29.68,29.43,6,1,9,0.00
2013-3-9,43,36,31,31,28,26,87,75,59,30.05,29.68,8,1,12,0.00
2013-3-10,35,31,27,31,27,20,92,84,63,30.19,30.02,14,3,23,0.00
2013-3-11,40,32,24,28,22,14,93,70,36,30.27,30.18,10,2,17,0.00
2013-3-12,35,30,24,14,6,-1,51,37,22,30.20,29.95,16,6,27,0.00
2013-3-13,32,22,5,7,0,-7,75,41,21,29.95,29.72,12,4,21,0.00
2013-3-14,26,20,14,15,11,0,84,69,39,29.82,29.71,14,5,22,0.00
2013-3-15,35,22,7,12,3,-4,83,49,19,29.79,29.67,8,2,12,0.00
2013-3-16,34,18,0,5,1,-5,79,51,23,30.06,29.77,7,2,11,0.00
2013-3-17,36,20,6,15,7,0,77,57,27,30.10,30.00,6,2,9,0.00
2013-3-18,34,18,4,14,7,0,84,64,32,30.00,29.84,8,2,11,0.00
2013-3-19,29,16,-1,9,1,-5,85,55,25,29.89,29.84,16,3,24,0.00
2013-3-20,29,18,3,4,0,-5,72,46,28,29.92,29.85,11,2,17,0.00
2013-3-21,46,7,3,11,0,-3,78,73,49,30.86,28.68,3,1,99,45.98
2013-3-22,38,27,20,30,21,9,90,79,58,30.05,29.76,9,1,10,0.00
2013-3-23,39,31,27,24,20,13,91,64,51,29.80,29.71,9,4,14,0.00
2013-3-24,27,24,19,22,18,10,89,77,50,29.80,29.52,8,2,15,0.00
2013-3-25,27,21,10,22,13,2,90,72,40,29.66,29.36,11,2,17,0.00
2013-3-26,24,10,-5,6,0,-10,81,65,43,30.12,29.66,8,2,13,0.00
2013-3-27,23,10,-5,9,1,-10,83,66,45,30.19,30.12,10,3,14,0.00
2013-3-28,28,21,15,22,15,9,83,77,70,30.14,29.79,14,5,21,0.00
2013-3-29,43,35,26,30,26,21,82,71,57,29.89,29.75,13,4,17,0.00
2013-3-30,44,36,30,35,31,26,91,83,68,30.17,29.89,6,1,8,0.00
2013-3-31,46,33,24,34,28,22,93,81,58,30.19,30.06,8,1,14,0.00
2013-4-1,45,34,25,30,24,22,89,69,41,30.07,29.91,8,1,13,0.00
2013-4-2,45,34,22,25,22,18,89,63,37,30.09,29.96,8,1,12,0.00
2013-4-3,45,36,26,26,23,21,81,60,41,30.16,30.09,9,2,54,0.00
2013-4-4,42,33,24,22,16,8,82,53,27,30.14,29.71,11,3,17,0.00
2013-4-5,38,28,15,14,8,1,80,47,24,29.71,29.42,8,2,11,0.00
2013-4-6,36,26,19,17,12,9,69,55,38,29.46,29.38,10,2,13,0.00
2013-4-7,28,22,13,13,7,2,72,52,34,29.73,29.46,22,6,30,0.00
2013-4-8,28,18,6,12,5,1,82,59,36,29.73,29.24,9,2,15,0.00
2013-4-9,28,19,9,11,6,1,80,58,39,29.42,29.02,11,2,17,0.00
2013-4-10,24,17,10,13,5,-2,79,60,35,29.89,29.42,11,4,16,0.00
2013-4-11,25,16,2,10,3,-4,80,59,38,30.07,29.89,11,2,17,0.00
2013-4-12,31,19,4,10,2,-5,80,51,23,30.09,30.02,12,3,17,0.00
2013-4-13,36,25,9,15,5,-2,72,45,22,30.36,30.09,10,3,17,0.00
2013-4-14,41,28,12,16,11,0,84,53,23,30.47,30.36,8,2,11,0.00
2013-4-15,40,29,14,20,13,8,78,52,30,30.38,30.24,11,3,17,0.00
2013-4-16,37,30,17,14,10,4,78,45,25,30.25,30.06,9,3,15,0.00
2013-4-17,37,32,14,17,11,5,78,43,31,30.12,30.06,8,3,13,0.38
2013-4-18,42,30,16,19,13,7,83,53,26,30.15,30.06,8,2,14,0.00
2013-4-19,45,33,20,18,14,8,77,49,23,30.29,30.10,11,2,15,0.00
2013-4-20,46,34,20,22,17,11,76,52,26,30.36,30.28,8,2,13,0.00
2013-4-21,80,31,21,32,24,16,92,77,10,30.35,30.28,10,2,16,0.00
2013-4-22,50,38,25,32,26,20,92,66,32,30.46,30.34,8,2,14,0.00
2013-4-23,40,37,35,37,33,24,93,88,62,30.42,30.30,8,2,14,0.00
2013-4-24,41,37,35,36,34,33,95,89,83,30.31,29.81,6,1,9,0.00
2013-4-25,43,39,33,33,15,-14,85,39,10,29.82,29.67,59,9,59,0.00
2013-4-26,42,35,27,21,12,6,63,39,27,29.74,29.45,15,3,23,0.00
2013-4-27,44,37,30,21,15,7,67,42,23,29.89,29.48,16,5,27,0.00
2013-4-28,44,36,26,22,12,7,72,40,24,30.12,29.89,12,3,19,0.00
2013-4-29,46,35,22,24,19,14,84,56,32,30.14,30.06,7,1,105,0.00
2013-4-30,44,37,30,34,26,19,83,67,54,30.06,29.75,8,2,14,0.00
2013-5-1,47,38,28,31,27,25,91,67,43,29.75,29.50,11,3,17,0.00
2013-5-2,44,37,34,38,33,26,93,84,67,29.81,29.59,4,1,8,0.00
2013-5-3,43,38,34,38,34,27,94,86,60,29.87,29.75,5,1,10,0.00
2013-5-4,44,38,33,36,31,25,92,78,48,29.89,29.72,6,1,11,0.00
2013-5-5,50,39,27,30,25,18,89,59,30,30.11,29.89,11,2,17,0.00
2013-5-6,47,40,34,29,26,20,75,58,38,30.22,30.10,8,2,16,0.00
2013-5-7,49,40,33,34,29,23,82,65,40,30.24,30.21,10,2,13,0.00
2013-5-8,54,44,32,34,28,22,89,57,29,30.24,30.17,12,3,19,0.00
2013-5-9,54,44,31,34,28,-3,76,56,37,30.25,30.19,8,2,12,0.00
2013-5-10,61,48,29,35,30,24,85,53,32,30.20,29.88,10,3,57,0.00
2013-5-11,54,47,40,43,39,35,90,74,52,29.89,29.53,124,2,124,0.00
2013-5-12,58,49,41,44,38,33,86,69,42,29.53,29.43,7,1,11,0.00
2013-5-13,52,46,38,44,34,18,93,67,29,29.44,29.37,9,2,14,0.00
2013-5-14,50,41,33,24,19,9,67,44,21,29.60,29.43,8,2,12,0.00
2013-5-15,50,41,32,33,26,20,75,57,34,29.71,29.60,8,2,13,0.00
2013-5-16,40,38,35,38,34,29,93,88,75,29.67,29.39,11,3,18,0.00
2013-5-17,45,38,33,38,35,32,94,88,67,29.49,29.34,7,2,12,0.00
2013-5-18,43,36,30,32,22,12,92,60,29,30.14,29.49,10,2,15,0.00
2013-5-19,48,38,25,21,17,6,74,45,19,30.57,30.14,10,3,17,0.00
2013-5-20,51,40,27,32,23,14,78,52,26,30.61,30.52,9,2,14,0.00
2013-5-21,52,43,34,35,32,29,83,66,50,30.52,30.23,9,2,13,0.00
2013-5-22,52,45,38,42,37,33,88,74,57,30.23,30.09,7,1,11,0.00
2013-5-23,93,49,43,44,41,36,93,76,51,30.11,30.06,10,2,15,0.00
2013-5-24,64,54,39,41,38,34,85,59,36,30.07,29.93,8,2,14,0.00
2013-5-25,65,51,40,41,38,33,83,62,36,29.96,29.87,9,2,14,0.00
2013-5-26,58,46,34,51,40,32,92,80,50,29.91,29.83,13,2,13,0.00
2013-5-27,72,54,44,48,43,38,93,69,31,29.85,29.73,11,2,15,0.00
2013-5-28,76,58,38,45,40,35,88,57,28,29.75,29.59,8,2,14,0.00
2013-5-29,75,60,44,44,40,35,77,51,26,29.71,29.60,7,2,13,0.00
2013-5-30,63,54,43,45,42,38,85,63,47,29.98,29.72,8,2,14,0.00
2013-5-31,59,49,43,46,43,39,94,80,61,30.13,29.98,10,2,17,0.00
2013-6-1,56,49,45,43,42,40,90,78,59,30.18,30.12,5,2,13,0.00
2013-6-2,59,51,44,44,42,39,93,74,49,30.19,30.02,8,2,14,0.00
2013-6-3,59,53,47,41,37,33,74,56,38,30.02,29.68,11,2,18,0.00
2013-6-4,57,50,43,46,41,36,87,74,50,29.81,29.63,6,1,8,0.00
2013-6-5,59,50,37,43,38,-12,93,66,10,29.93,29.81,8,2,14,0.00
2013-6-6,68,56,35,37,33,26,84,47,21,29.91,29.65,11,3,24,0.00
2013-6-7,71,57,42,42,38,34,78,51,32,29.89,29.67,9,2,17,0.00
2013-6-8,72,59,45,45,41,37,79,53,34,30.07,29.89,8,2,11,0.00
2013-6-9,74,63,45,47,42,38,82,50,32,30.16,30.07,8,2,11,0.00
2013-6-10,70,61,45,46,42,38,82,53,36,30.21,30.07,7,2,11,0.00
2013-6-11,73,62,45,47,42,38,85,53,29,30.11,29.95,8,2,14,0.00
2013-6-12,76,59,45,46,42,38,80,56,26,29.97,29.90,7,2,11,0.00
2013-6-13,62,53,45,46,43,39,87,68,45,30.15,29.95,9,2,13,0.00
2013-6-14,68,55,41,48,44,39,92,69,44,30.23,30.15,8,2,10,0.00
2013-6-15,67,54,44,49,46,40,92,74,50,30.30,30.19,5,1,9,0.00
2013-6-16,79,62,45,52,46,41,89,61,31,30.21,30.08,7,2,10,0.00
2013-6-17,81,65,49,51,47,43,83,55,34,30.08,29.81,5,1,9,0.00
2013-6-18,74,64,51,53,48,41,84,57,43,29.89,29.75,11,2,21,0.00
2013-6-19,70,61,50,50,45,42,84,58,39,29.97,29.80,15,3,21,0.00
2013-6-20,58,54,47,49,46,42,84,75,68,30.01,29.95,8,2,14,0.00
2013-6-21,57,52,46,44,42,41,83,71,59,30.07,30.01,8,2,11,0.00
2013-6-22,64,55,43,48,44,39,89,69,51,30.03,29.73,7,2,12,0.00
2013-6-23,70,59,50,53,48,43,92,69,42,29.74,29.60,7,1,11,0.00
2013-6-24,69,59,51,52,48,45,86,68,53,29.64,29.59,6,1,11,0.00
2013-6-25,74,61,46,56,49,40,85,66,49,30.14,29.31,4,1,7,0.70
2013-6-26,83,63,49,57,50,45,88,67,30,29.85,29.58,9,1,14,0.00
2013-6-27,65,58,52,54,51,48,90,79,67,30.06,29.85,8,2,11,0.00
2013-6-28,58,54,50,52,49,46,90,83,77,30.16,30.06,5,1,11,0.00
2013-6-29,69,59,53,54,50,47,86,73,58,30.12,29.97,7,1,12,0.00
2013-6-30,62,55,51,50,47,45,90,76,61,30.03,29.82,8,1,13,0.00
2013-7-1,60,54,49,51,46,41,95,79,54,29.82,29.52,9,2,17,0.00
2013-7-2,59,53,50,48,45,41,89,75,63,29.86,29.54,8,2,14,0.00
2013-7-3,58,52,49,48,46,45,90,80,66,30.00,29.86,8,1,11,0.00
2013-7-4,54,51,48,49,47,45,92,84,73,30.04,29.96,5,1,8,0.00
2013-7-5,62,55,43,52,48,39,92,79,55,30.05,29.98,6,1,10,0.00
2013-7-6,73,56,50,71,48,-4,93,77,28,29.99,29.69,8,1,101,0.09
2013-7-7,58,53,50,53,49,45,93,85,73,29.69,29.54,7,1,12,0.00
2013-7-8,66,56,46,51,47,40,95,73,55,29.67,29.49,11,3,17,0.70
2013-7-9,65,58,48,49,46,43,82,66,52,29.87,29.67,8,2,14,0.00
2013-7-10,73,63,53,51,47,43,77,58,36,29.88,29.76,8,2,11,0.00
2013-7-11,77,65,48,53,48,43,84,58,31,29.79,29.72,8,2,13,0.00
2013-7-12,77,65,52,53,48,46,81,57,34,29.80,29.75,9,2,13,0.00
2013-7-13,68,60,50,53,49,45,85,68,50,30.01,29.78,8,2,15,0.00
2013-7-14,66,57,49,52,49,46,92,76,59,30.16,30.01,8,2,14,0.00
2013-7-15,64,56,48,54,50,44,89,79,69,30.18,30.09,6,1,103,0.00
2013-7-16,68,60,53,56,52,49,89,76,59,30.09,29.97,8,1,10,0.00
2013-7-17,69,62,51,58,54,48,92,77,65,29.97,29.90,8,2,21,0.00
2013-7-18,76,65,53,60,56,50,92,73,55,29.99,29.93,11,3,19,0.00
2013-7-19,75,67,60,56,52,47,73,60,40,30.01,29.94,14,5,24,0.00
2013-7-20,74,64,55,52,49,45,80,59,39,29.98,29.90,8,3,14,0.00
2013-7-21,74,64,50,51,48,45,86,58,37,29.91,29.80,10,2,16,0.00
2013-7-22,78,65,49,51,47,44,83,55,32,29.92,29.84,8,2,14,0.00
2013-7-23,76,65,53,58,51,45,79,60,46,29.94,29.87,5,1,9,0.00
2013-7-24,80,66,51,58,53,48,88,65,41,29.88,29.77,7,2,11,0.00
2013-7-25,72,65,58,59,57,52,86,75,64,29.91,29.78,8,2,14,0.00
2013-7-26,67,62,57,62,58,56,98,89,80,30.09,29.90,5,2,40,0.00
2013-7-27,67,67,67,60,60,60,80,80,80,30.09,30.09,4,4,6,0.00
2013-7-28,75,67,57,60,59,40,86,76,57,30.11,29.01,6,3,11,0.70
2013-7-29,70,61,52,58,54,49,92,79,64,30.10,30.05,7,2,11,0.00
2013-7-30,69,61,52,57,54,50,91,77,63,30.13,30.07,7,1,14,0.00
2013-7-31,70,61,52,58,53,49,90,78,62,30.11,30.03,8,2,14,0.00
2013-8-1,71,61,55,57,54,52,90,79,61,30.04,29.88,7,1,14,0.00
2013-8-2,70,62,54,56,52,50,93,73,49,29.91,29.67,10,2,14,0.00
2013-8-3,63,58,56,55,54,50,91,85,62,29.80,29.73,6,1,11,0.00
2013-8-4,65,57,53,56,53,50,93,86,71,29.88,29.80,4,1,10,0.00
2013-8-5,68,59,54,58,54,50,95,87,55,29.88,29.83,5,1,10,0.00
2013-8-6,66,61,55,51,50,48,84,67,57,29.84,29.75,9,2,18,0.00
2013-8-7,67,61,56,54,51,48,88,69,52,29.75,29.61,11,2,18,0.00
2013-8-8,60,55,51,53,50,46,92,81,67,29.72,29.60,7,2,12,0.00
2013-8-9,61,55,50,56,52,48,94,89,77,29.71,29.56,6,2,12,0.00
2013-8-10,64,57,52,53,51,48,96,82,63,29.91,29.66,7,1,11,0.00
2013-8-11,57,54,51,56,52,48,96,93,87,29.93,29.88,6,1,11,0.00
2013-8-12,66,59,56,61,57,54,96,93,83,29.95,29.90,6,2,9,0.00
2013-8-13,59,57,54,57,54,16,97,90,80,29.93,29.88,7,1,17,0.00
2013-8-14,63,56,47,52,48,45,94,77,58,29.94,29.81,5,1,11,0.00
2013-8-15,67,56,44,53,48,42,93,77,58,29.81,29.67,8,1,12,0.00
2013-8-16,59,54,50,55,51,47,94,90,78,29.68,29.51,8,1,13,0.00
2013-8-17,67,59,55,58,54,53,93,86,67,29.52,29.40,9,2,17,0.00
2013-8-18,65,59,54,58,54,52,95,86,71,29.55,29.38,4,1,6,0.00
2013-8-19,59,56,52,54,53,51,94,91,81,29.67,29.55,7,1,11,0.00
2013-8-20,63,56,51,55,52,50,95,86,73,29.76,29.67,7,2,13,0.00
2013-8-21,56,55,52,54,52,48,97,91,75,29.76,29.65,6,2,9,0.00
2013-8-22,56,55,53,55,54,52,98,96,94,29.66,29.58,6,1,9,0.00
2013-8-23,68,59,51,57,52,47,96,79,53,29.58,29.43,5,2,11,0.00
2013-8-24,70,57,43,51,45,39,95,69,34,29.62,29.47,13,2,19,0.00
2013-8-25,68,54,39,46,42,36,93,67,32,29.65,29.58,6,1,11,0.00
2013-8-26,67,54,41,53,46,38,90,76,55,29.66,29.61,5,1,8,0.00
2013-8-27,65,57,48,53,49,46,93,76,51,29.71,29.62,8,2,14,0.00
2013-8-28,62,56,52,52,48,44,94,75,56,29.63,29.43,8,2,12,0.00
2013-8-29,55,54,52,53,52,50,96,94,91,29.76,29.41,11,3,19,0.00
2013-8-30,63,56,53,56,53,50,97,89,73,29.87,29.76,4,1,9,0.00
2013-8-31,59,54,48,53,50,-40,96,87,75,29.83,29.73,6,1,11,0.00
2013-9-1,58,54,50,52,49,46,92,84,76,29.74,29.62,5,1,12,0.00
2013-9-2,59,54,51,56,52,50,97,94,86,29.62,29.41,11,1,18,0.00
2013-9-3,63,54,48,55,50,46,97,84,57,29.43,29.17,10,2,20,0.00
2013-9-4,61,53,48,52,48,43,97,83,60,29.70,29.30,11,2,17,0.00
2013-9-5,62,50,43,48,44,40,92,80,49,29.91,29.70,8,1,12,0.00
2013-9-6,53,50,47,49,47,44,94,88,79,29.89,29.29,16,5,26,0.00
2013-9-7,58,53,50,54,51,49,97,92,82,29.53,29.31,9,2,15,0.00
2013-9-8,65,55,49,51,48,45,97,78,48,29.72,29.38,17,3,26,0.00
2013-9-9,62,56,50,51,47,43,93,73,54,29.72,29.49,11,3,23,0.00
2013-9-10,60,54,51,56,52,50,97,93,84,29.64,29.56,4,1,6,0.00
2013-9-11,62,54,50,54,50,43,98,85,61,29.79,29.50,11,2,14,0.00
2013-9-12,60,51,43,48,44,41,95,79,57,29.89,29.78,8,1,12,0.00
2013-9-13,65,55,48,51,48,46,94,78,54,29.82,29.74,8,2,14,0.00
2013-9-14,66,56,47,50,47,44,95,76,45,29.82,29.74,7,2,13,0.00
2013-9-15,64,51,39,48,43,34,96,76,35,29.79,29.62,8,1,11,0.00
2013-9-16,62,48,35,46,41,33,95,77,50,29.62,29.39,5,1,8,0.00
2013-9-17,57,48,42,46,43,39,93,82,65,29.43,29.35,5,1,9,0.00
2013-9-18,53,47,42,44,42,40,96,83,65,29.52,29.43,5,1,10,0.00
2013-9-19,53,45,33,41,35,26,90,70,40,29.49,29.33,6,1,11,0.00
2013-9-20,50,38,28,30,26,21,93,66,34,29.33,28.92,6,1,9,0.00
2013-9-21,47,39,29,39,32,24,90,76,60,28.92,28.85,8,2,12,0.00
2013-9-22,47,42,38,39,28,19,92,60,33,29.21,28.85,13,2,22,0.00
2013-9-23,50,42,31,30,23,18,81,48,30,29.67,29.21,10,3,20,0.00
2013-9-24,45,36,26,37,28,23,91,74,51,29.86,29.67,9,2,14,0.00
2013-9-25,52,46,39,48,44,37,97,93,85,29.71,29.33,4,1,8,0.00
2013-9-26,51,46,44,47,45,43,97,94,87,29.52,29.08,4,1,6,0.00
2013-9-27,53,48,43,44,42,40,97,80,65,29.08,28.80,13,4,24,0.00
2013-9-28,56,46,38,45,40,36,96,80,60,29.06,28.99,8,1,11,0.00
2013-9-29,54,45,37,39,35,32,88,69,44,29.28,29.06,8,2,15,0.00
2013-9-30,54,45,36,36,32,28,84,64,39,29.55,29.28,9,2,17,0.00
2013-10-1,54,41,29,36,31,26,93,69,43,29.69,29.55,7,1,10,0.00
2013-10-2,52,44,38,43,40,35,95,86,69,29.72,29.65,4,2,8,0.00
2013-10-3,54,47,37,41,39,36,96,76,57,29.65,29.29,14,5,28,0.00
2013-10-4,58,47,36,43,39,34,94,76,47,29.65,29.35,4,1,8,0.00
2013-10-5,49,41,32,40,36,30,96,85,69,29.68,29.59,8,1,11,0.00
2013-10-6,49,42,39,44,39,37,95,88,69,30.12,26.92,9,2,18,0.70
2013-10-7,50,44,37,43,40,35,94,86,75,29.78,29.58,6,1,11,0.00
2013-10-8,50,44,41,48,42,37,97,92,84,29.58,29.00,11,2,16,0.00
2013-10-9,52,46,40,40,34,27,90,64,43,29.65,29.02,11,3,23,0.00
2013-10-10,42,39,34,40,35,30,96,85,67,29.66,29.59,7,2,11,0.00
2013-10-11,50,43,40,47,42,39,98,96,91,29.79,29.62,4,1,8,0.00
2013-10-12,52,47,42,46,41,38,98,81,60,29.76,29.49,11,2,20,0.00
2013-10-13,51,46,42,46,42,39,96,86,65,29.61,29.38,11,2,17,0.00
2013-10-14,50,44,39,45,41,37,96,90,79,29.99,29.61,5,1,7,0.00
2013-10-15,51,45,42,48,44,40,97,94,84,30.05,29.92,4,1,8,0.00
2013-10-16,49,46,43,48,45,42,98,95,87,30.18,30.05,5,1,9,0.00
2013-10-17,53,48,43,46,42,38,97,82,62,30.05,29.65,11,2,21,0.00
2013-10-18,51,48,44,44,39,37,90,73,60,29.70,29.48,12,2,20,0.00
2013-10-19,53,48,41,41,38,36,91,70,58,29.59,29.27,14,4,24,0.00
2013-10-20,53,46,40,41,37,32,85,72,50,29.86,29.59,11,3,16,0.00
2013-10-21,49,41,35,38,35,32,91,78,61,29.97,29.86,6,1,11,0.00
2013-10-22,48,42,34,38,36,32,93,80,65,30.12,29.94,11,2,17,0.00
2013-10-23,44,37,28,37,32,25,94,84,58,29.99,29.68,10,2,18,0.00
2013-10-24,46,38,28,40,32,25,92,81,69,29.75,29.58,11,2,17,0.70
2013-10-25,50,38,29,38,33,28,95,81,56,30.20,29.71,4,1,6,0.00
2013-10-26,43,35,27,37,32,26,94,86,77,30.46,30.20,8,2,12,0.00
2013-10-27,44,41,37,42,39,32,98,92,79,30.30,29.58,11,4,18,0.00
2013-10-28,51,46,42,48,44,41,99,92,83,29.59,29.26,16,5,23,0.00
2013-10-29,50,44,39,41,37,35,89,77,61,29.59,29.32,16,4,23,0.00
2013-10-30,50,45,42,38,36,35,83,73,61,29.32,29.07,14,6,23,0.00
2013-10-31,47,42,37,44,39,34,96,90,77,29.64,29.18,5,1,8,0.00
2013-11-1,43,41,40,41,39,36,95,93,87,30.02,29.64,7,1,11,0.00
2013-11-2,43,38,33,37,34,30,91,87,74,30.03,29.78,7,1,12,0.00
2013-11-3,50,45,38,38,35,32,81,70,60,29.81,29.53,8,2,14,0.00
2013-11-4,43,40,31,36,33,28,90,76,65,29.53,29.32,11,3,19,0.00
2013-11-5,46,33,26,32,28,17,91,85,49,29.96,29.41,8,2,14,0.70
2013-11-6,34,28,20,21,19,16,90,70,50,30.04,29.88,8,1,10,0.00
2013-11-7,32,28,24,21,20,17,83,70,57,29.88,29.72,11,2,18,0.00
2013-11-8,35,25,20,21,19,16,90,77,55,30.17,29.84,6,1,8,0.00
2013-11-9,32,27,20,30,24,17,92,89,84,30.17,29.97,5,1,8,0.00
2013-11-10,41,37,29,41,36,-23,99,98,91,29.97,29.67,7,1,10,0.00
2013-11-11,33,28,21,32,26,16,98,90,73,30.07,29.81,4,0,25,0.00
2013-11-12,26,17,10,18,13,8,92,85,70,30.11,30.05,4,1,7,0.00
2013-11-13,29,24,18,25,21,15,92,87,80,30.20,30.08,5,1,8,0.00
2013-11-14,45,33,27,40,31,25,99,93,82,30.09,29.84,11,2,16,0.00
2013-11-15,27,24,18,27,23,16,99,97,94,30.01,29.91,2,0,4,0.00
2013-11-16,32,21,15,18,15,9,96,77,52,30.21,29.97,11,1,17,0.00
2013-11-17,23,15,8,12,7,5,89,71,53,30.24,30.19,8,2,59,0.00
2013-11-18,13,13,13,5,5,5,70,70,70,30.19,30.13,0,0,0,0.00
2013-11-19,13,13,13,5,5,5,70,70,70,30.15,29.95,0,0,0,0.00
2013-11-20,13,13,13,5,5,5,70,70,70,30.05,29.93,0,0,0,0.00
2013-11-21,13,13,13,5,5,5,70,70,70,29.93,29.11,0,0,0,0.00
2013-11-22,13,13,13,5,5,5,70,70,70,29.12,29.07,0,0,0,0.00
2013-12-7,36,33,13,35,32,5,96,95,70,30.44,29.17,2,0,2,0.00
2013-12-8,33,30,21,32,30,-19,97,97,95,30.44,30.34,25,0,4,0.00
2013-12-9,32,30,28,31,29,-19,97,96,10,30.34,30.18,24,0,0,0.00
2013-12-10,31,29,25,30,28,-21,96,93,87,30.18,29.75,0,0,0,0.00
2013-12-11,25,21,0,22,16,-3,86,80,78,29.75,29.41,49,0,0,0.00
2013-12-12,9,3,-2,5,-1,-6,86,84,82,29.44,29.38,0,0,0,0.00
2013-12-13,18,15,5,16,11,1,90,86,72,29.45,28.83,0,0,0,0.00
2013-12-14,21,18,15,18,16,12,91,90,89,29.05,28.82,0,0,0,0.00
2013-12-15,18,11,0,15,8,-4,90,87,85,29.89,29.05,0,0,0,0.00
2013-12-16,4,-3,-11,0,-7,-15,85,83,80,30.10,29.89,0,0,0,0.00
2013-12-17,-5,-10,-14,-9,-15,-18,80,79,78,30.37,30.10,0,0,0,0.00
2013-12-18,14,2,-10,11,-2,-14,89,84,79,30.38,29.67,0,0,0,0.00
2013-12-19,17,13,9,14,10,6,90,89,87,29.71,29.61,0,0,0,0.00
2013-12-20,24,18,12,22,15,10,93,90,89,29.68,29.60,0,0,0,0.00
2013-12-21,31,28,24,30,26,22,95,94,93,29.63,29.42,0,0,0,0.00
2013-12-22,32,29,17,31,28,16,96,95,93,29.69,29.35,0,0,0,0.00
2013-12-23,17,7,-3,15,4,-7,93,87,83,30.11,29.69,0,0,0,0.00
2013-12-24,-1,-3,-6,-4,-7,-10,84,83,82,30.12,29.76,0,0,0,0.00
2013-12-25,-1,-8,-12,-5,-12,-17,83,80,78,29.77,29.70,0,0,0,0.00
2013-12-26,-3,-9,-12,-7,-13,-17,82,80,78,29.76,29.66,0,0,0,0.00
2013-12-27,18,2,-10,14,-2,-15,88,83,79,29.91,29.75,0,0,0,0.00
2013-12-28,21,18,15,18,16,12,91,89,88,29.91,29.86,0,0,0,0.00
2013-12-29,21,19,16,19,17,14,92,92,91,29.93,29.61,0,0,0,0.00
2013-12-30,26,17,7,21,15,4,92,90,87,29.61,29.43,0,0,0,0.00
2013-12-31,30,18,6,26,15,3,91,86,83,29.59,29.15,0,0,0,0.00
2014-1-1,36,34,25,34,31,22,94,90,85,29.45,29.03,9,2,17,0.00
2014-1-2,34,30,26,31,27,23,93,89,85,30.01,29.46,0,0,0,0.00